Scarborough,

8:07 AM AST on May 27, 2018 (GMT -0400)
Scarborough

Weather History for TTCP - December, 2013

Change the Weather History Date:

Wednesday, December 18, 2013

  Actual Average Record
Temperature  
Mean Temperature 80 °F -  
Max Temperature 86 °F 83 °F 87 °F (1996)
Min Temperature 75 °F 73 °F 73 °F (2000)
Cooling Degree Days 16    
Growing Degree Days 30 (Base 50)    
Moisture  
Dew Point 70 °F    
Average Humidity 73    
Maximum Humidity 94    
Minimum Humidity 58    
Precipitation  
Precipitation 0.00 in - - ()
Sea Level Pressure  
Sea Level Pressure 29.91 in    
Wind  
Wind Speed 12 mph ()    
Max Wind Speed 92 mph    
Max Gust Speed -    
Visibility 6.1 miles    
Events Rain    
Averages and records for this station are not official NWS values.
T = Trace of Precipitation, MM = Missing Value Source: Averaged Metar Reports

Daily Weather History Graph

Daily Weather History Graph

Search for Another Location

Airport or City:

Astronomy

Dec. 18, 2013 Rise Set
Actual Time 6:15 AM AST 5:44 PM AST
Civil Twilight 5:52 AM AST 6:07 PM AST
Nautical Twilight 5:26 AM AST 6:33 PM AST
Astronomical Twilight 5:00 AM AST 7:00 PM AST
Moon 6:57 PM AST (12/18) 7:04 AM AST (12/18)
Length of Visible Light 12h 14m
Length of Day
11h 28m
Full, 99% of the Moon is Illuminated
Dec 18
Full
Dec 25
Last Quarter
Jan 1
New
Jan 7
First Quarter
Jan 16
Full

Hourly Weather History & Observations

Time (AST) Temp. Heat Index Dew Point Humidity Pressure Visibility Wind Dir Wind Speed Gust Speed Precip Events Conditions
12:00 AM 77.0 °F - 69.8 °F 78% 29.92 in 6.2 mi ENE 4.6 mph - N/A   Mostly Cloudy
1:00 AM 78.8 °F - 69.8 °F 74% 29.89 in 6.2 mi East 11.5 mph - N/A   Mostly Cloudy
2:00 AM 78.8 °F - 69.8 °F 74% 29.89 in 6.2 mi East 17.3 mph - N/A   Mostly Cloudy
3:00 AM 78.8 °F - 69.8 °F 74% 29.86 in 6.2 mi East 11.5 mph - N/A   Mostly Cloudy
4:00 AM 78.8 °F - 69.8 °F 74% 29.86 in 6.2 mi East 8.1 mph - N/A   Mostly Cloudy
5:00 AM 77.0 °F - 66.2 °F 69% 29.89 in 6.2 mi East 11.5 mph - N/A Rain Light Rain Showers
6:00 AM 77.0 °F - 69.8 °F 78% 29.89 in 6.2 mi ENE 92.1 mph - N/A   Mostly Cloudy
7:00 AM 75.2 °F - 69.8 °F 83% 29.92 in 5.0 mi East 10.4 mph - N/A   Mostly Cloudy
8:00 AM 77.0 °F - 75.2 °F 94% 29.95 in 5.0 mi Calm Calm - N/A   Mostly Cloudy
9:00 AM 82.4 °F 87.2 °F 71.6 °F 70% 29.95 in 6.2 mi East 11.5 mph - N/A   Mostly Cloudy
10:00 AM 84.2 °F 89.6 °F 71.6 °F 66% 29.95 in 6.2 mi ENE 11.5 mph - N/A   Mostly Cloudy
11:00 AM 84.2 °F 90.9 °F 73.4 °F 70% 29.95 in 6.2 mi East 20.7 mph - N/A   Mostly Cloudy
12:00 PM 84.2 °F 87.3 °F 68.0 °F 58% 29.92 in 6.2 mi East 21.9 mph - N/A   Mostly Cloudy
2:00 PM 86.0 °F 93.4 °F 73.4 °F 66% 29.89 in 6.2 mi East 17.3 mph - N/A   Mostly Cloudy
3:00 PM 82.4 °F 86.3 °F 69.8 °F 66% 29.89 in 6.2 mi East 19.6 mph - N/A   Mostly Cloudy
4:00 PM 80.6 °F 83.9 °F 69.8 °F 70% 29.89 in 6.2 mi ENE 11.5 mph - N/A   Mostly Cloudy
5:00 PM 80.6 °F 83.2 °F 68.0 °F 65% 29.89 in 6.2 mi ENE 9.2 mph - N/A   Mostly Cloudy
6:00 PM 78.8 °F - 69.8 °F 74% 29.89 in 6.2 mi ENE 8.1 mph - N/A   Mostly Cloudy
7:00 PM 78.8 °F - 69.8 °F 74% 29.89 in 6.2 mi ENE 5.8 mph - N/A   Mostly Cloudy
8:00 PM 77.0 °F - 68.0 °F 74% 29.92 in 6.2 mi NE 3.5 mph - N/A   Scattered Clouds
9:00 PM 77.0 °F - 68.0 °F 74% 29.92 in 6.2 mi ENE 5.8 mph - N/A   Scattered Clouds
10:00 PM 77.0 °F - 68.0 °F 74% 29.92 in 6.2 mi ENE 3.5 mph - N/A   Scattered Clouds
11:00 PM 75.2 °F - 68.0 °F 78% 29.92 in 6.2 mi ENE 3.5 mph - N/A   Partly Cloudy